| time (UTC) | temp F | wind direction | speed knots | gust knots | rain 1hr in | rain 24hr in | rain mn in | humidity % | barometer mb |
| 20260505153256 | 57 | 285 | 0.0 | 0.0 | 0.00 | 0.30 | 0.30 | 87 | 1009.6 |
| 20260505152753 | 57 | 27 | 1.7 | 2.6 | 0.00 | 0.30 | 0.30 | 87 | 1009.1 |
| 20260505152250 | 57 | 17 | 0.0 | 0.0 | 0.00 | 0.30 | 0.30 | 87 | 1009.0 |
| 20260505151744 | 57 | 267 | 0.0 | 0.0 | 0.00 | 0.30 | 0.30 | 88 | 1008.5 |
| 20260505151242 | 57 | 41 | 0.0 | 0.0 | 0.00 | 0.30 | 0.30 | 89 | 1008.4 |
| 20260505150738 | 56 | 56 | 1.7 | 4.3 | 0.00 | 0.30 | 0.30 | 89 | 1007.9 |
| 20260505150236 | 57 | 61 | 0.0 | 0.0 | 0.00 | 0.30 | 0.30 | 89 | 1008.2 |
| 20260505140200 | 56 | 77 | 0.0 | 0.0 | 0.00 | 0.30 | 0.30 | 91 | 1008.6 |
| 20260505130124 | 56 | 48 | 0.9 | 1.7 | 0.00 | 0.30 | 0.30 | 99 | 1008.0 |
| 20260505124613 | 56 | 19 | 0.0 | 0.0 | 0.00 | 0.30 | 0.30 | 99 | 1007.9 |
| 20260505124110 | 57 | 8 | 0.0 | 0.9 | 0.00 | 0.30 | 0.30 | 99 | 1008.0 |
| 20260505123606 | 57 | 3 | 0.0 | 0.0 | 0.00 | 0.30 | 0.30 | 99 | 1007.9 |
| 20260505123103 | 57 | 275 | 0.0 | 0.0 | 0.00 | 0.30 | 0.30 | 99 | 1007.9 |
| 20260505122559 | 57 | 26 | 0.0 | 0.9 | 0.00 | 0.30 | 0.30 | 99 | 1007.4 |
| 20260505122056 | 57 | 33 | 0.0 | 0.0 | 0.00 | 0.30 | 0.30 | 99 | 1007.5 |
| 20260505121547 | 57 | 47 | 0.0 | 0.0 | 0.00 | 0.30 | 0.30 | 99 | 1007.7 |
| 20260505121044 | 57 | 82 | 0.0 | 0.0 | 0.00 | 0.30 | 0.30 | 99 | 1007.3 |
| 20260505120540 | 57 | 16 | 0.0 | 0.0 | 0.00 | 0.30 | 0.30 | 99 | 1007.2 |
| 20260505120036 | 57 | 52 | 0.0 | 0.9 | 0.00 | 0.30 | 0.30 | 99 | 1007.2 |
| 20260505115531 | 57 | 33 | 0.9 | 1.7 | 0.00 | 0.30 | 0.30 | 99 | 1007.2 |
| 20260505115029 | 57 | 47 | 4.3 | 5.2 | 0.00 | 0.30 | 0.30 | 99 | 1007.4 |
| 20260505114525 | 57 | 92 | 0.0 | 0.9 | 0.00 | 0.30 | 0.30 | 99 | 1007.2 |
| 20260505114022 | 58 | 44 | 0.0 | 0.9 | 0.00 | 0.30 | 0.30 | 99 | 1007.2 |
| 20260505113518 | 58 | 28 | 0.0 | 1.7 | 0.00 | 0.30 | 0.30 | 99 | 1007.2 |
| 20260505113014 | 58 | 36 | 0.0 | 0.0 | 0.00 | 0.30 | 0.30 | 99 | 1007.2 |
| 20260505112510 | 59 | 282 | 0.0 | 0.0 | 0.00 | 0.30 | 0.30 | 99 | 1007.7 |
| 20260505112009 | 59 | 246 | 0.0 | 0.0 | 0.00 | 0.30 | 0.30 | 99 | 1007.1 |
| 20260505111502 | 59 | 3 | 0.0 | 0.0 | 0.00 | 0.30 | 0.30 | 99 | 1007.0 |
| 20260505110959 | 59 | 288 | 0.0 | 0.0 | 0.07 | 0.30 | 0.30 | 99 | 1007.1 |
| 20260505110455 | 59 | 279 | 0.0 | 0.0 | 0.07 | 0.30 | 0.30 | 99 | 1007.2 |
| 20260505101927 | 58 | 275 | 0.0 | 0.0 | 0.00 | 0.28 | 0.28 | 99 | 1007.2 |
| 20260505101427 | 58 | 297 | 0.0 | 0.0 | 0.00 | 0.28 | 0.28 | 99 | 1007.1 |
| 20260505100923 | 58 | 189 | 0.0 | 0.0 | 0.07 | 0.28 | 0.28 | 99 | 1007.1 |
| 20260505100420 | 59 | 305 | 0.0 | 0.0 | 0.07 | 0.28 | 0.28 | 99 | 1006.7 |
| 20260505095915 | 58 | 335 | 0.0 | 0.0 | 0.00 | 0.27 | 0.27 | 99 | 1006.5 |
| 20260505095413 | 58 | 240 | 0.0 | 0.0 | 0.00 | 0.27 | 0.27 | 99 | 1006.0 |
| 20260505094909 | 58 | 233 | 0.0 | 0.0 | 0.00 | 0.27 | 0.27 | 99 | 1006.2 |
| 20260505094406 | 58 | 247 | 0.0 | 0.0 | 0.00 | 0.27 | 0.27 | 99 | 1006.2 |
| 20260505093901 | 58 | 250 | 0.0 | 0.0 | 0.00 | 0.27 | 0.27 | 99 | 1006.0 |
| 20260505093359 | 58 | 209 | 0.0 | 0.0 | 0.00 | 0.27 | 0.27 | 99 | 1006.0 |
| 20260505092856 | 59 | 223 | 0.0 | 0.0 | 0.05 | 0.27 | 0.27 | 98 | 1006.0 |
| 20260505092354 | 59 | 269 | 0.0 | 0.0 | 0.05 | 0.27 | 0.27 | 98 | 1005.8 |
| 20260505091851 | 59 | 244 | 0.0 | 0.0 | 0.00 | 0.26 | 0.26 | 98 | 1005.4 |
| 20260505091349 | 59 | 293 | 0.0 | 0.0 | 0.00 | 0.26 | 0.26 | 98 | 1005.4 |
| 20260505090847 | 58 | 243 | 0.0 | 0.0 | 0.00 | 0.26 | 0.26 | 98 | 1005.1 |
| 20260505090345 | 58 | 231 | 0.0 | 0.0 | 0.00 | 0.26 | 0.26 | 98 | 1005.3 |
| 20260505085842 | 58 | 233 | 0.9 | 2.6 | 0.00 | 0.26 | 0.26 | 99 | 1004.5 |
| 20260505085340 | 58 | 148 | 0.0 | 0.0 | 0.07 | 0.26 | 0.26 | 99 | 1004.2 |
| 20260505084837 | 59 | 206 | 0.0 | 0.0 | 0.12 | 0.26 | 0.26 | 99 | 1005.0 |
| 20260505084335 | 59 | 212 | 0.9 | 2.6 | 0.12 | 0.25 | 0.25 | 99 | 1005.5 |
| 20260505083832 | 60 | 216 | 0.0 | 0.0 | 0.12 | 0.24 | 0.24 | 99 | 1005.8 |
| 20260505083330 | 60 | 222 | 0.0 | 0.0 | 0.12 | 0.23 | 0.23 | 99 | 1006.6 |
| 20260505082826 | 60 | 226 | 0.0 | 0.0 | 0.19 | 0.22 | 0.22 | 99 | 1007.0 |
| 20260505082323 | 60 | 246 | 0.0 | 0.0 | 0.24 | 0.21 | 0.21 | 99 | 1007.3 |
| 20260505081819 | 60 | 222 | 0.0 | 0.9 | 0.19 | 0.19 | 0.19 | 99 | 1007.2 |
| 20260505081316 | 60 | 229 | 0.0 | 0.9 | 0.12 | 0.18 | 0.18 | 99 | 1007.5 |
| 20260505080813 | 60 | 239 | 0.0 | 0.0 | 0.17 | 0.16 | 0.16 | 99 | 1007.1 |
| 20260505080309 | 60 | 171 | 0.0 | 0.0 | 0.17 | 0.16 | 0.16 | 99 | 1007.2 |
| 20260505075804 | 61 | 229 | 0.0 | 1.7 | 0.17 | 0.14 | 0.14 | 99 | 1007.5 |
| 20260505075304 | 60 | 207 | 0.9 | 1.7 | 0.12 | 0.12 | 0.12 | 99 | 1007.5 |
| 20260505074758 | 60 | 243 | 1.7 | 1.7 | 0.26 | 0.11 | 0.11 | 98 | 1007.1 |
| 20260505074256 | 60 | 238 | 4.3 | 6.1 | 0.19 | 0.10 | 0.10 | 98 | 1007.0 |
| 20260505073753 | 61 | 240 | 2.6 | 2.6 | 0.19 | 0.08 | 0.08 | 96 | 1007.1 |
| 20260505073251 | 61 | 220 | 2.6 | 4.3 | 0.24 | 0.07 | 0.07 | 95 | 1007.4 |
| 20260505072747 | 61 | 231 | 2.6 | 2.6 | 0.24 | 0.05 | 0.05 | 93 | 1007.4 |
| 20260505072243 | 62 | 236 | 2.6 | 2.6 | 0.17 | 0.03 | 0.03 | 90 | 1007.1 |
| 20260505071739 | 63 | 224 | 1.7 | 1.7 | 0.05 | 0.01 | 0.01 | 87 | 1007.1 |
| 20260505071236 | 64 | 225 | 6.1 | 7.8 | 0.00 | 0.00 | 0.00 | 85 | 1007.0 |
| 20260505070734 | 64 | 220 | 0.9 | 1.7 | 0.00 | 0.00 | 0.00 | 82 | 1007.4 |
| 20260505070230 | 65 | 236 | 1.7 | 2.6 | 0.00 | 0.00 | 0.00 | 80 | 1007.4 |
| 20260505065726 | 65 | 257 | 2.6 | 4.3 | 0.00 | 0.00 | 0.00 | 79 | 1007.4 |
| 20260505065223 | 64 | 228 | 1.7 | 4.3 | 0.00 | 0.00 | 0.00 | 80 | 1006.7 |
| 20260505064720 | 64 | 240 | 0.9 | 0.9 | 0.00 | 0.00 | 0.00 | 80 | 1006.5 |
| 20260505064218 | 64 | 230 | 1.7 | 1.7 | 0.00 | 0.00 | 0.00 | 80 | 1006.3 |
| 20260505063715 | 64 | 204 | 0.9 | 0.9 | 0.00 | 0.00 | 0.00 | 80 | 1006.4 |
| 20260505063211 | 64 | 221 | 0.9 | 1.7 | 0.00 | 0.00 | 0.00 | 80 | 1006.6 |
| 20260505062707 | 64 | 222 | 0.0 | 0.0 | 0.00 | 0.00 | 0.00 | 80 | 1006.7 |
| 20260505062205 | 64 | 243 | 2.6 | 4.3 | 0.00 | 0.00 | 0.00 | 80 | 1007.0 |
| 20260505061702 | 64 | 216 | 0.9 | 0.9 | 0.00 | 0.00 | 0.00 | 80 | 1006.9 |
| 20260505061200 | 64 | 225 | 0.9 | 0.9 | 0.00 | 0.00 | 0.00 | 80 | 1007.0 |
| 20260505060657 | 64 | 219 | 0.9 | 1.7 | 0.00 | 0.00 | 0.00 | 80 | 1006.6 |
| 20260505060154 | 64 | 197 | 0.9 | 0.9 | 0.00 | 0.00 | 0.00 | 80 | 1007.1 |
| 20260505055649 | 64 | 214 | 0.0 | 0.9 | 0.00 | 0.00 | 0.00 | 80 | 1006.9 |
| 20260505055146 | 64 | 230 | 0.0 | 0.0 | 0.00 | 0.00 | 0.00 | 80 | 1006.7 |
| 20260505054643 | 64 | 213 | 0.0 | 0.0 | 0.00 | 0.00 | 0.00 | 80 | 1007.0 |
| 20260505054141 | 64 | 222 | 0.9 | 1.7 | 0.00 | 0.00 | 0.00 | 80 | 1007.0 |
| 20260505053639 | 64 | 211 | 0.9 | 0.9 | 0.00 | 0.00 | 0.00 | 80 | 1007.0 |
| 20260505053135 | 64 | 208 | 0.9 | 0.9 | 0.00 | 0.00 | 0.00 | 80 | 1007.0 |
| 20260505052632 | 64 | 226 | 0.0 | 0.0 | 0.00 | 0.00 | 0.00 | 80 | 1007.1 |
| 20260505052129 | 64 | 190 | 0.0 | 0.0 | 0.00 | 0.00 | 0.00 | 80 | 1006.7 |
| 20260505051626 | 64 | 204 | 0.9 | 0.9 | 0.00 | 0.00 | 0.00 | 80 | 1006.7 |
| 20260505051124 | 64 | 199 | 0.0 | 0.0 | 0.00 | 0.00 | 0.00 | 80 | 1007.0 |
| 20260505050622 | 64 | 221 | 0.0 | 0.0 | 0.00 | 0.00 | 0.00 | 79 | 1007.1 |
| 20260505050120 | 64 | 204 | 0.0 | 0.0 | 0.00 | 0.00 | 0.00 | 79 | 1007.2 |
| 20260505041549 | 65 | 230 | 0.0 | 0.0 | 0.00 | 0.00 | 0.00 | 77 | 1007.5 |
| 20260505041047 | 65 | 228 | 0.0 | 0.9 | 0.00 | 0.00 | 0.00 | 76 | 1007.7 |
| 20260505040544 | 65 | 223 | 0.0 | 0.0 | 0.00 | 0.00 | 0.00 | 76 | 1007.7 |
| 20260505040041 | 65 | 230 | 0.0 | 0.0 | 0.00 | 0.00 | 0.00 | 76 | 1007.9 |
| 20260505035537 | 66 | 217 | 0.0 | 0.0 | 0.00 | 0.00 | 0.00 | 75 | 1007.8 |
| 20260505035034 | 66 | 222 | 0.0 | 0.0 | 0.00 | 0.00 | 0.00 | 74 | 1008.1 |
| 20260505034530 | 66 | 228 | 0.0 | 0.0 | 0.00 | 0.00 | 0.00 | 74 | 1007.9 |
| 20260505034027 | 66 | 216 | 0.0 | 0.0 | 0.00 | 0.00 | 0.00 | 73 | 1008.1 |
| 20260505033524 | 67 | 214 | 0.0 | 0.0 | 0.00 | 0.00 | 0.00 | 73 | 1008.0 |
| 20260505033023 | 67 | 214 | 0.0 | 0.0 | 0.00 | 0.00 | 0.00 | 73 | 1008.1 |
| 20260505032520 | 67 | 212 | 0.0 | 0.0 | 0.00 | 0.00 | 0.00 | 72 | 1008.0 |
| 20260505032016 | 68 | 219 | 0.9 | 0.9 | 0.00 | 0.00 | 0.00 | 71 | 1008.3 |
| 20260505031514 | 68 | 216 | 0.9 | 1.7 | 0.00 | 0.00 | 0.00 | 71 | 1008.0 |
| 20260505031010 | 68 | 217 | 0.9 | 0.9 | 0.00 | 0.00 | 0.00 | 71 | 1008.1 |
| 20260505030507 | 68 | 195 | 0.9 | 0.9 | 0.00 | 0.00 | 0.00 | 72 | 1008.1 |
| 20260505030002 | 68 | 198 | 0.0 | 0.9 | 0.00 | 0.00 | 0.00 | 72 | 1008.0 |
| 20260505025459 | 68 | 187 | 0.9 | 0.9 | 0.00 | 0.00 | 0.00 | 72 | 1008.0 |
| 20260505024958 | 68 | 225 | 0.9 | 0.9 | 0.00 | 0.00 | 0.00 | 72 | 1008.0 |
| 20260505024454 | 68 | 222 | 0.0 | 0.0 | 0.00 | 0.00 | 0.00 | 72 | 1008.3 |
| 20260505023952 | 68 | 223 | 0.0 | 0.0 | 0.00 | 0.00 | 0.00 | 72 | 1008.2 |
| 20260505023449 | 68 | 217 | 0.0 | 0.0 | 0.00 | 0.00 | 0.00 | 72 | 1007.9 |
| 20260505022946 | 68 | 219 | 0.0 | 0.0 | 0.00 | 0.00 | 0.00 | 72 | 1008.1 |
| 20260505022444 | 68 | 218 | 0.0 | 0.0 | 0.00 | 0.00 | 0.00 | 72 | 1007.7 |
| 20260505021941 | 68 | 218 | 0.0 | 0.0 | 0.00 | 0.00 | 0.00 | 71 | 1007.7 |
| 20260505021437 | 69 | 237 | 0.0 | 0.0 | 0.00 | 0.00 | 0.00 | 70 | 1007.8 |
| 20260505020933 | 69 | 232 | 0.0 | 0.0 | 0.00 | 0.00 | 0.00 | 70 | 1007.6 |
| 20260505020428 | 69 | 232 | 0.0 | 0.0 | 0.00 | 0.00 | 0.00 | 69 | 1007.6 |
| 20260505015925 | 69 | 236 | 0.0 | 0.0 | 0.00 | 0.00 | 0.00 | 69 | 1007.8 |
| 20260505015422 | 69 | 229 | 0.0 | 0.0 | 0.00 | 0.00 | 0.00 | 69 | 1007.5 |
| 20260505014920 | 69 | 244 | 0.0 | 0.0 | 0.00 | 0.00 | 0.00 | 68 | 1007.3 |
| 20260505014416 | 70 | 244 | 0.0 | 0.0 | 0.00 | 0.00 | 0.00 | 68 | 1007.4 |
| 20260505013913 | 70 | 242 | 0.0 | 0.0 | 0.00 | 0.00 | 0.00 | 67 | 1007.3 |
| 20260505013410 | 70 | 240 | 0.9 | 0.9 | 0.00 | 0.00 | 0.00 | 67 | 1007.2 |
| 20260505012908 | 70 | 232 | 0.0 | 0.0 | 0.00 | 0.00 | 0.00 | 67 | 1007.2 |
| 20260505012406 | 70 | 208 | 0.0 | 0.0 | 0.00 | 0.00 | 0.00 | 66 | 1007.0 |
| 20260505011902 | 70 | 235 | 0.0 | 0.0 | 0.00 | 0.00 | 0.00 | 65 | 1007.0 |
| 20260505011359 | 71 | 232 | 0.0 | 0.0 | 0.00 | 0.00 | 0.00 | 65 | 1007.0 |
| 20260505010855 | 71 | 223 | 0.0 | 0.0 | 0.00 | 0.00 | 0.00 | 64 | 1006.9 |
| 20260505010351 | 71 | 235 | 0.0 | 0.0 | 0.00 | 0.00 | 0.00 | 64 | 1006.9 |
| 20260505005847 | 71 | 218 | 0.0 | 0.0 | 0.00 | 0.00 | 0.00 | 64 | 1006.7 |
| 20260505005344 | 71 | 237 | 0.0 | 0.0 | 0.00 | 0.00 | 0.00 | 63 | 1006.7 |
| 20260505004842 | 72 | 217 | 0.0 | 0.0 | 0.00 | 0.00 | 0.00 | 63 | 1006.6 |
| 20260505004338 | 72 | 237 | 0.0 | 0.9 | 0.00 | 0.00 | 0.00 | 63 | 1006.5 |
| 20260505003836 | 72 | 227 | 0.0 | 0.0 | 0.00 | 0.00 | 0.00 | 62 | 1006.7 |
| 20260505003333 | 72 | 229 | 0.0 | 0.0 | 0.00 | 0.00 | 0.00 | 62 | 1006.6 |
| 20260505002828 | 72 | 232 | 0.0 | 0.0 | 0.00 | 0.00 | 0.00 | 61 | 1006.5 |
| 20260505002325 | 73 | 226 | 0.0 | 0.0 | 0.00 | 0.00 | 0.00 | 60 | 1006.5 |
| 20260505001824 | 73 | 234 | 0.9 | 1.7 | 0.00 | 0.00 | 0.00 | 60 | 1006.3 |
| 20260505001320 | 73 | 243 | 0.9 | 0.9 | 0.00 | 0.00 | 0.00 | 59 | 1006.3 |
| 20260505000818 | 73 | 251 | 0.9 | 0.9 | 0.00 | 0.00 | 0.00 | 59 | 1006.3 |
| 20260505000315 | 73 | 235 | 0.0 | 0.0 | 0.00 | 0.00 | 0.00 | 60 | 1006.4 |
| 20260504235812 | 74 | 201 | 0.9 | 0.9 | 0.00 | 0.00 | 0.00 | 59 | 1006.4 |
| 20260504235308 | 74 | 204 | 2.6 | 4.3 | 0.00 | 0.00 | 0.00 | 58 | 1006.4 |
| 20260504234806 | 75 | 201 | 1.7 | 1.7 | 0.00 | 0.00 | 0.00 | 57 | 1006.5 |
| 20260504234303 | 75 | 213 | 3.5 | 4.3 | 0.00 | 0.00 | 0.00 | 56 | 1006.2 |
| 20260504233759 | 76 | 222 | 2.6 | 4.3 | 0.00 | 0.00 | 0.00 | 56 | 1006.3 |
| 20260504233255 | 76 | 224 | 0.9 | 2.6 | 0.00 | 0.00 | 0.00 | 54 | 1006.5 |
| 20260504232752 | 76 | 234 | 0.9 | 0.9 | 0.00 | 0.00 | 0.00 | 54 | 1006.5 |
| 20260504232249 | 77 | 239 | 0.0 | 1.7 | 0.00 | 0.00 | 0.00 | 54 | 1006.2 |
| 20260504231746 | 77 | 209 | 0.9 | 0.9 | 0.00 | 0.00 | 0.00 | 53 | 1006.4 |
| 20260504231242 | 77 | 220 | 1.7 | 2.6 | 0.00 | 0.00 | 0.00 | 53 | 1006.1 |
| 20260504230738 | 77 | 209 | 1.7 | 1.7 | 0.00 | 0.00 | 0.00 | 52 | 1006.0 |
| 20260504230237 | 78 | 224 | 3.5 | 5.2 | 0.00 | 0.00 | 0.00 | 52 | 1006.1 |
| 20260504225736 | 78 | 198 | 0.9 | 0.9 | 0.00 | 0.00 | 0.00 | 52 | 1006.4 |
| 20260504225231 | 78 | 231 | 0.9 | 0.9 | 0.00 | 0.00 | 0.00 | 52 | 1006.3 |
| 20260504224729 | 78 | 223 | 0.9 | 0.9 | 0.00 | 0.00 | 0.00 | 53 | 1006.2 |
| 20260504224226 | 78 | 249 | 2.6 | 4.3 | 0.00 | 0.00 | 0.00 | 53 | 1006.2 |
| 20260504223722 | 78 | 217 | 2.6 | 4.3 | 0.00 | 0.00 | 0.00 | 53 | 1006.4 |
| 20260504223218 | 78 | 237 | 0.0 | 0.9 | 0.00 | 0.00 | 0.00 | 54 | 1006.2 |
| 20260504222715 | 78 | 208 | 3.5 | 4.3 | 0.00 | 0.00 | 0.00 | 53 | 1006.3 |
| 20260504222212 | 78 | 229 | 0.0 | 0.0 | 0.00 | 0.00 | 0.00 | 53 | 1006.4 |
| 20260504221709 | 78 | 239 | 4.3 | 5.2 | 0.00 | 0.00 | 0.00 | 52 | 1006.3 |
| 20260504221206 | 80 | 238 | 1.7 | 2.6 | 0.00 | 0.00 | 0.00 | 51 | 1006.4 |
| 20260504220703 | 79 | 218 | 0.9 | 1.7 | 0.00 | 0.00 | 0.00 | 53 | 1006.4 |
| 20260504220200 | 78 | 218 | 3.5 | 4.3 | 0.00 | 0.00 | 0.00 | 53 | 1006.3 |
| 20260504215656 | 78 | 240 | 2.6 | 2.6 | 0.00 | 0.00 | 0.00 | 53 | 1006.5 |
| 20260504215154 | 78 | 212 | 5.2 | 7.0 | 0.00 | 0.00 | 0.00 | 53 | 1006.2 |
| 20260504214649 | 78 | 248 | 1.7 | 2.6 | 0.00 | 0.00 | 0.00 | 54 | 1006.5 |
| 20260504214146 | 79 | 208 | 3.5 | 5.2 | 0.00 | 0.00 | 0.00 | 52 | 1006.3 |
| 20260504213643 | 79 | 240 | 1.7 | 4.3 | 0.00 | 0.00 | 0.00 | 52 | 1006.4 |
| 20260504213139 | 78 | 241 | 2.6 | 2.6 | 0.00 | 0.00 | 0.00 | 53 | 1006.4 |
| 20260504212636 | 78 | 229 | 4.3 | 6.1 | 0.00 | 0.00 | 0.00 | 52 | 1006.6 |
| 20260504212133 | 78 | 208 | 5.2 | 7.0 | 0.00 | 0.00 | 0.00 | 52 | 1006.6 |
| 20260504211630 | 77 | 236 | 0.9 | 1.7 | 0.00 | 0.00 | 0.00 | 55 | 1006.6 |
| 20260504211126 | 78 | 236 | 6.1 | 9.6 | 0.00 | 0.00 | 0.00 | 54 | 1006.7 |
| 20260504210625 | 79 | 232 | 1.7 | 1.7 | 0.00 | 0.00 | 0.00 | 53 | 1006.5 |
| 20260504210120 | 78 | 225 | 2.6 | 5.2 | 0.00 | 0.00 | 0.00 | 52 | 1007.0 |
| 20260504205618 | 77 | 214 | 2.6 | 4.3 | 0.00 | 0.00 | 0.00 | 53 | 1007.0 |
| 20260504205116 | 78 | 215 | 2.6 | 4.3 | 0.00 | 0.00 | 0.00 | 53 | 1007.2 |
| 20260504204614 | 78 | 240 | 6.1 | 8.7 | 0.00 | 0.00 | 0.00 | 54 | 1007.2 |
| 20260504204113 | 78 | 235 | 7.8 | 11.3 | 0.00 | 0.00 | 0.00 | 53 | 1007.1 |
| 20260504203611 | 78 | 209 | 3.5 | 5.2 | 0.00 | 0.00 | 0.00 | 53 | 1007.5 |
| 20260504203108 | 78 | 199 | 1.7 | 2.6 | 0.00 | 0.00 | 0.00 | 54 | 1007.3 |
| 20260504202603 | 78 | 232 | 3.5 | 5.2 | 0.00 | 0.00 | 0.00 | 53 | 1007.5 |
| 20260504202100 | 78 | 222 | 0.9 | 1.7 | 0.00 | 0.00 | 0.00 | 53 | 1007.6 |
| 20260504201557 | 78 | 221 | 5.2 | 6.1 | 0.00 | 0.00 | 0.00 | 53 | 1007.6 |
| 20260504201055 | 78 | 236 | 5.2 | 6.1 | 0.00 | 0.00 | 0.00 | 53 | 1007.7 |
| 20260504200551 | 78 | 224 | 7.0 | 9.6 | 0.00 | 0.00 | 0.00 | 52 | 1007.9 |
| 20260504200048 | 78 | 211 | 3.5 | 5.2 | 0.00 | 0.00 | 0.00 | 53 | 1007.6 |
| 20260504195544 | 78 | 229 | 2.6 | 2.6 | 0.00 | 0.00 | 0.00 | 53 | 1007.7 |
| 20260504195041 | 77 | 237 | 2.6 | 4.3 | 0.00 | 0.00 | 0.00 | 54 | 1007.8 |
| 20260504194537 | 78 | 220 | 3.5 | 5.2 | 0.00 | 0.00 | 0.00 | 52 | 1007.7 |
| 20260504194033 | 77 | 191 | 1.7 | 2.6 | 0.00 | 0.00 | 0.00 | 53 | 1008.0 |
| 20260504193529 | 77 | 197 | 5.2 | 8.7 | 0.00 | 0.00 | 0.00 | 53 | 1007.9 |
| 20260504193028 | 77 | 280 | 8.7 | 13.9 | 0.00 | 0.00 | 0.00 | 54 | 1008.0 |
| 20260504192526 | 77 | 245 | 5.2 | 7.0 | 0.00 | 0.00 | 0.00 | 54 | 1007.9 |
| 20260504192024 | 77 | 198 | 5.2 | 7.0 | 0.00 | 0.00 | 0.00 | 54 | 1007.8 |
| 20260504191522 | 77 | 246 | 6.1 | 8.7 | 0.00 | 0.00 | 0.00 | 54 | 1007.9 |
| 20260504191017 | 77 | 251 | 4.3 | 6.1 | 0.00 | 0.00 | 0.00 | 54 | 1008.0 |
| 20260504190514 | 77 | 185 | 4.3 | 5.2 | 0.00 | 0.00 | 0.00 | 54 | 1007.8 |
| 20260504190009 | 76 | 190 | 4.3 | 5.2 | 0.00 | 0.00 | 0.00 | 54 | 1008.0 |
| 20260504185507 | 76 | 229 | 7.0 | 7.8 | 0.00 | 0.00 | 0.00 | 54 | 1008.1 |
| 20260504185004 | 77 | 190 | 4.3 | 5.2 | 0.00 | 0.00 | 0.00 | 54 | 1007.9 |
| 20260504184459 | 77 | 182 | 6.1 | 11.3 | 0.00 | 0.00 | 0.00 | 55 | 1008.0 |
| 20260504183954 | 77 | 229 | 5.2 | 6.1 | 0.00 | 0.00 | 0.00 | 53 | 1008.3 |
| 20260504183452 | 76 | 227 | 4.3 | 5.2 | 0.00 | 0.00 | 0.00 | 55 | 1008.2 |
| 20260504182950 | 76 | 220 | 6.1 | 7.0 | 0.00 | 0.00 | 0.00 | 54 | 1008.3 |
| 20260504182446 | 77 | 245 | 3.5 | 4.3 | 0.00 | 0.00 | 0.00 | 54 | 1008.1 |
| 20260504181944 | 76 | 262 | 3.5 | 6.1 | 0.00 | 0.00 | 0.00 | 55 | 1008.2 |
| 20260504181441 | 76 | 221 | 7.0 | 8.7 | 0.00 | 0.00 | 0.00 | 53 | 1008.1 |
| 20260504180939 | 76 | 222 | 4.3 | 6.1 | 0.00 | 0.00 | 0.00 | 54 | 1008.3 |
| 20260504180438 | 76 | 232 | 2.6 | 4.3 | 0.00 | 0.00 | 0.00 | 55 | 1008.1 |
| 20260504175936 | 76 | 227 | 3.5 | 4.3 | 0.00 | 0.00 | 0.00 | 54 | 1008.1 |
| 20260504175433 | 76 | 227 | 0.9 | 1.7 | 0.00 | 0.00 | 0.00 | 55 | 1008.2 |
| 20260504174930 | 76 | 204 | 4.3 | 7.0 | 0.00 | 0.00 | 0.00 | 53 | 1008.3 |
| 20260504174427 | 76 | 184 | 1.7 | 1.7 | 0.00 | 0.00 | 0.00 | 55 | 1008.5 |
| 20260504173925 | 75 | 235 | 3.5 | 4.3 | 0.00 | 0.00 | 0.00 | 55 | 1008.3 |
| 20260504173421 | 75 | 248 | 4.3 | 5.2 | 0.00 | 0.00 | 0.00 | 55 | 1008.5 |
| 20260504172919 | 76 | 233 | 4.3 | 6.1 | 0.00 | 0.00 | 0.00 | 56 | 1008.7 |
| 20260504172415 | 75 | 225 | 1.7 | 2.6 | 0.00 | 0.00 | 0.00 | 55 | 1008.3 |
| 20260504171911 | 75 | 216 | 3.5 | 5.2 | 0.00 | 0.00 | 0.00 | 55 | 1008.5 |
| 20260504171409 | 75 | 217 | 6.1 | 7.8 | 0.00 | 0.00 | 0.00 | 55 | 1008.6 |
| 20260504170905 | 75 | 222 | 3.5 | 5.2 | 0.00 | 0.00 | 0.00 | 56 | 1008.5 |
| 20260504170402 | 75 | 173 | 6.1 | 7.8 | 0.00 | 0.00 | 0.00 | 55 | 1008.3 |
| 20260504160321 | 73 | 250 | 9.6 | 13.9 | 0.00 | 0.00 | 0.00 | 55 | 1008.9 |